Theta_e
299 292 289 293 294 294 293 291 290 294 298 294 294 295 297 300 300 301 303 301 301 303 308 310 312 313 312 313 314 327 329 330 329 331 345 343 342 343 340 343 351 347 348 345
294 289 297 299 297 295 293 291 290 295 297 296 294 294 297 299 300 302 302 303 302 303 305 309 310 311 312 314 315 324 326 327 332 338 344 345 345 341 338 339 349 349 347 345
291 295 300 299 296 295 293 290 291 291 296 297 294 291 294 299 301 302 304 306 304 303 304 307 309 310 312 314 323 324 324 325 331 332 339 344 343 343 342 344 348 347 346 345
294 299 298 296 295 296 289 296 296 295 292 286 293 284 292 295 297 302 303 302 303 304 306 307 310 309 312 313 320 323 323 322 325 332 331 334 338 337 342 342 343 347 347 345
293 296 296 295 296 297 292 298 295 295 291 289 290 286 291 297 297 301 303 307 308 306 305 305 306 308 313 315 315 323 325 325 326 330 329 328 335 340 343 340 341 342 346 343
297 302 299 298 300 300 300 295 294 291 288 281 288 288 288 292 296 299 305 306 308 305 305 306 306 308 311 313 313 318 325 324 330 334 335 333 337 340 340 335 340 341 345 342
296 296 300 302 296 298 296 288 278 278 278 279 293 288 290 298 302 302 303 305 307 308 305 305 306 306 308 309 311 312 323 322 330 332 336 336 336 339 340 340 334 340 340 339
286 286 297 300 296 292 290 287 279 277 279 283 292 284 289 301 304 306 307 306 307 305 305 308 309 310 311 313 315 319 318 320 328 332 336 336 335 339 342 340 334 337 340 339
287 289 299 299 300 296 291 286 291 286 287 281 286 291 298 301 303 304 304 306 305 306 307 308 309 308 311 311 313 315 317 317 318 320 328 334 336 336 337 338 336 336 338 339
292 285 296 298 300 298 294 295 286 286 280 277 283 285 287 295 298 302 303 303 305 307 308 307 307 308 310 310 312 312 315 317 317 318 319 331 334 336 337 335 332 334 332 331
294 289 290 295 292 290 290 288 289 289 286 282 278 282 296 296 301 301 301 303 305 306 307 307 308 308 310 310 311 312 316 315 318 318 318 321 332 334 335 333 332 331 328 326
295 289 284 289 295 297 294 290 291 285 283 287 285 286 301 299 302 303 302 304 304 304 305 307 308 306 307 308 310 311 314 315 317 319 319 320 328 332 328 330 332 334 331 326
296 288 282 285 289 293 290 292 291 291 288 284 282 283 299 300 300 301 300 300 305 305 307 306 305 305 306 308 310 312 313 314 317 318 318 319 325 329 327 328 327 327 322 319
302 289 288 283 286 290 287 290 291 287 281 283 284 287 292 296 297 299 298 302 302 303 304 305 305 303 304 308 310 312 311 313 315 319 317 321 324 326 327 328 326 322 319 318
296 286 291 291 292 292 291 290 290 287 287 285 288 289 293 297 297 298 298 300 300 301 303 303 305 303 303 305 307 309 311 314 315 318 320 322 322 324 323 321 321 320 319 317
294 282 289 289 293 292 289 291 291 291 292 291 293 292 299 301 298 298 299 299 299 300 302 302 304 304 305 305 306 309 309 310 316 316 320 321 320 320 319 317 313 311 310 308
289 287 283 283 289 290 283 288 292 294 295 293 287 292 295 295 296 296 297 298 299 300 301 301 301 302 303 304 307 305 307 310 316 317 319 321 319 318 314 309 308 307 305 304
286 285 287 284 287 276 289 298 297 293 295 295 294 294 295 295 295 296 297 297 299 300 300 301 301 302 302 303 303 305 306 309 314 317 318 319 314 307 306 305 303 304 303 301
297 290 285 281 280 287 290 295 293 290 289 295 292 294 295 296 295 294 297 298 297 297 299 300 301 301 301 302 303 303 304 308 312 316 312 309 307 305 304 302 301 301 300 300
297 292 282 285 281 279 289 297 300 297 284 296 295 294 294 294 287 290 296 297 297 298 299 300 301 302 301 301 301 302 303 307 311 315 310 308 306 303 301 302 301 300 299 298
287 287 284 284 283 286 296 299 299 279 283 296 296 295 294 291 292 296 297 296 298 298 298 300 299 299 300 300 301 301 307 308 315 309 306 305 304 302 300 299 298 297 296 296
285 284 283 285 283 279 299 296 289 295 295 296 295 295 294 294 294 294 295 295 296 297 298 299 298 299 301 302 302 303 307 314 309 306 304 303 302 300 298 296 295 295 295 294
282 287 286 289 285 295 298 294 297 297 295 295 295 295 294 293 293 294 295 296 297 298 299 299 298 299 301 303 302 305 311 311 306 305 303 302 300 298 296 294 293 293 294 293
292 294 286 289 292 295 297 299 298 298 296 296 296 295 295 293 294 295 296 296 297 300 301 302 298 298 299 302 304 310 312 307 305 302 301 300 297 296 296 295 295 293 293 292
290 291 290 292 294 297 297 298 298 297 297 296 296 295 295 295 296 295 295 296 298 302 303 299 298 298 300 305 310 310 306 304 302 301 299 298 297 295 293 293 294 294 294 293
292 291 289 288 296 295 295 297 297 295 294 295 295 295 297 297 295 295 295 297 301 299 298 299 298 300 305 309 306 304 304 303 300 297 296 295 293 293 293 291 290 291 292 292
Wind_Speed
7 5 8 11 5 7 8 12 16 16 15 11 15 18 20 15 7 14 17 11 11 10 14 14 11 11 10 8 8 9 8 8 5 2 2 2 4 5 1 7 18 16 13 14
7 5 11 18 10 9 9 10 14 15 14 15 18 22 20 13 13 17 13 17 16 8 8 9 10 9 10 10 9 8 9 8 5 3 3 3 3 5 11 13 17 16 14 13
7 12 15 12 10 14 9 8 13 15 19 18 17 17 17 14 17 16 17 13 9 11 10 10 10 10 9 10 10 10 10 9 5 6 3 2 3 2 6 13 9 7 10 8
6 7 18 14 12 11 7 10 14 18 14 13 7 20 17 15 18 12 19 7 11 6 6 8 7 7 9 10 9 11 10 9 8 9 4 6 5 7 6 7 5 0 4 5
11 12 14 15 12 5 7 9 15 19 17 14 11 7 13 14 9 16 14 12 18 6 9 9 9 2 8 8 9 10 10 9 8 7 8 6 5 5 5 3 4 7 8 1
12 7 6 17 6 1 7 10 17 9 7 7 7 1 3 3 4 10 7 7 7 7 9 8 6 7 1 6 8 8 10 9 8 8 9 10 9 6 5 4 4 7 9 10
8 6 11 8 11 10 12 8 6 6 5 8 5 4 9 15 12 11 13 10 8 10 9 5 7 6 8 3 4 6 8 10 10 10 8 9 8 7 7 6 5 7 6 8
3 7 6 16 10 8 4 1 4 6 10 17 9 8 2 5 12 15 21 16 11 6 7 10 10 8 9 9 9 12 10 6 4 5 7 7 8 5 5 4 4 6 8 5
4 5 16 17 13 7 7 2 9 7 6 5 6 8 3 12 11 8 14 20 15 20 12 9 9 8 8 9 8 7 7 6 6 4 5 6 6 7 5 4 4 4 5 4
3 11 5 11 14 10 9 7 8 2 5 6 5 6 3 8 13 14 16 15 16 16 15 12 8 8 6 7 7 9 8 3 1 5 2 4 7 5 4 1 4 9 10 14
4 5 5 8 3 16 12 11 7 3 6 4 4 5 6 7 6 6 0 5 9 10 11 12 14 8 8 7 8 9 9 8 7 5 4 4 6 4 4 1 5 11 15 9
7 4 8 13 14 18 14 4 5 3 5 3 4 6 5 5 10 8 11 9 4 3 7 8 5 7 8 8 9 8 9 10 8 5 6 6 7 3 4 6 7 10 6 10
4 3 10 9 4 8 5 15 6 10 4 11 9 7 13 16 10 4 7 3 4 6 10 5 6 4 7 7 7 7 7 9 12 8 8 8 6 7 6 8 8 12 13 10
4 5 8 15 18 14 18 19 13 7 8 17 15 24 18 9 13 7 3 5 7 6 9 8 6 2 3 5 6 7 8 7 10 12 7 8 10 11 8 7 9 12 15 14
2 6 10 13 18 17 22 25 19 17 18 16 24 24 12 14 12 8 2 5 6 7 7 6 3 4 4 6 6 8 11 13 8 12 5 9 11 12 12 12 14 13 16 17
1 5 4 11 13 15 23 22 23 19 17 13 10 15 8 13 9 12 8 5 7 6 5 6 5 7 4 5 7 8 10 12 14 8 2 8 11 13 13 16 16 14 14 18
9 8 4 25 10 13 14 11 6 9 13 2 2 7 3 10 13 11 12 11 10 8 6 6 7 5 5 5 6 7 9 12 12 12 4 9 12 13 13 16 15 15 15 20
5 1 3 8 5 6 11 6 3 8 10 10 7 7 7 8 9 11 13 14 15 12 10 5 3 2 3 3 6 7 9 11 10 5 7 11 15 16 15 17 17 17 14 19
5 6 3 2 3 8 16 1 4 4 15 3 5 10 11 10 13 16 12 6 6 7 6 3 1 1 2 2 4 6 9 8 7 6 10 13 15 17 17 17 16 13 15 16
5 7 4 2 4 5 3 3 9 8 9 4 5 9 14 15 15 14 6 12 16 19 16 10 7 6 4 4 2 6 7 6 9 13 14 13 14 18 18 16 15 14 14 14
6 4 7 7 6 7 4 11 8 1 6 9 7 13 14 14 14 20 19 21 19 17 18 17 16 13 11 6 5 8 6 4 6 16 17 15 16 18 17 17 15 15 13 12
4 4 3 4 4 7 10 18 5 5 5 9 13 11 15 13 20 19 19 20 20 19 19 18 15 12 10 7 7 8 5 3 16 18 18 17 16 15 15 18 16 14 14 17
5 1 4 5 6 15 14 4 4 4 10 10 11 11 14 20 20 21 21 21 21 21 18 17 15 13 11 10 8 5 6 14 17 20 18 17 17 16 15 18 16 12 11 12
6 8 4 12 4 10 8 9 8 11 8 11 9 16 17 19 21 23 17 20 21 21 18 15 16 15 13 10 8 7 14 17 19 20 18 16 17 17 15 12 11 10 10 10
9 8 8 14 10 15 11 10 11 10 12 13 16 16 17 19 18 16 18 21 19 15 8 18 19 15 12 11 10 16 19 20 20 19 16 16 15 15 14 11 8 10 6 8
5 4 3 4 13 7 10 13 10 11 14 15 17 17 17 12 13 15 15 16 10 7 14 16 15 13 10 15 18 19 20 22 21 18 13 14 13 11 11 13 10 11 14 21
Wind_Direction
295 335 259 266 310 327 329 323 309 303 304 305 296 282 281 275 281 280 276 266 254 234 225 221 226 212 206 207 194 175 174 204 175 156 161 206 236 232 142 280 285 197 187 187
342 296 314 322 343 329 312 305 306 306 327 326 314 304 298 283 268 263 260 270 254 240 245 227 216 208 189 188 186 170 180 186 194 137 161 181 192 220 199 218 232 219 194 180
318 287 295 338 334 317 308 311 328 316 324 309 293 292 300 306 301 277 262 260 250 234 237 231 219 199 180 173 166 167 177 189 193 189 150 201 277 231 225 223 253 232 194 190
286 324 328 316 308 301 333 331 315 302 302 292 320 294 287 284 288 310 264 330 296 241 237 198 191 204 181 185 162 164 175 187 206 194 172 180 206 249 240 234 196 252 354 299
262 287 292 287 280 27 300 314 291 290 286 305 316 259 301 303 306 338 337 64 339 359 74 55 24 286 188 163 168 174 183 196 208 187 187 192 210 230 267 289 239 180 189 27
271 267 308 296 295 334 305 322 321 304 313 297 281 124 304 312 291 311 323 18 326 318 78 59 23 20 11 178 165 168 179 204 198 193 199 200 209 215 242 236 207 200 186 173
283 288 290 37 0 350 345 333 321 334 349 261 346 319 253 316 284 303 320 293 138 255 76 32 7 349 21 60 192 201 182 202 203 197 199 199 210 219 228 233 192 188 194 189
325 332 353 358 335 283 289 86 188 281 300 291 300 258 320 49 44 26 349 307 344 32 64 54 42 48 46 36 46 59 56 355 313 199 205 213 219 222 212 203 183 197 180 204
336 251 332 334 314 338 298 245 247 285 300 299 236 262 330 21 30 31 346 359 14 15 357 45 41 54 29 18 17 38 50 36 46 44 331 242 239 257 236 208 182 182 117 174
315 307 272 305 331 293 278 290 314 296 272 264 255 318 212 2 2 340 7 352 359 7 357 348 13 18 24 7 1 359 15 358 23 334 332 262 238 255 267 275 143 95 105 128
324 211 273 341 285 300 316 303 306 280 152 273 292 268 170 172 148 261 31 292 314 341 344 349 347 11 9 12 20 4 358 8 339 304 306 328 263 260 260 346 119 131 123 119
218 246 284 274 281 272 263 134 117 292 307 312 291 267 228 179 159 204 249 220 264 246 301 324 334 351 3 357 359 359 356 345 329 325 332 331 288 237 25 105 105 156 168 142
226 232 300 304 264 356 345 309 315 302 267 265 277 265 329 314 351 326 284 261 248 255 267 255 300 351 342 334 336 354 359 342 334 329 343 331 335 75 73 135 126 109 101 93
142 206 224 260 269 288 294 285 287 257 276 288 263 284 291 308 318 330 359 294 287 282 265 250 264 209 317 2 352 1 339 330 328 316 330 26 56 68 68 77 86 92 100 102
217 229 238 251 266 275 276 278 284 278 270 263 288 278 287 316 292 272 235 286 303 279 294 312 354 11 355 1 8 3 351 334 330 329 30 103 93 93 94 86 88 90 99 94
315 276 308 270 269 281 285 282 281 287 292 292 297 303 313 278 351 0 324 312 300 279 296 318 342 343 23 24 356 9 341 327 325 337 264 113 101 109 101 104 96 94 95 93
240 247 208 268 273 293 288 277 289 259 286 44 152 223 352 351 343 334 323 320 312 308 302 307 306 350 55 23 8 346 328 329 323 313 99 128 109 93 93 94 96 96 94 92
220 191 261 306 302 233 241 43 66 339 311 337 44 1 332 301 298 299 298 288 285 300 299 310 50 19 87 37 359 336 326 322 320 344 88 99 102 99 97 96 99 100 99 94
164 109 202 245 220 281 292 39 3 308 288 95 348 325 319 316 309 295 283 298 330 316 314 294 248 288 340 341 338 321 305 314 312 142 106 109 111 110 106 101 102 104 104 101
61 106 123 238 254 266 340 115 271 248 270 349 320 321 318 316 299 299 319 312 301 297 293 289 258 219 214 234 256 290 289 304 321 124 114 109 110 108 107 108 107 103 97 103
319 297 222 222 250 272 61 347 289 72 268 331 339 306 302 299 282 298 301 287 277 270 268 268 261 254 254 253 233 255 251 298 146 111 110 112 109 109 106 106 104 101 106 101
296 303 323 328 271 268 4 355 358 267 309 306 306 303 302 294 296 292 289 285 281 271 262 248 246 240 230 200 211 228 175 166 120 115 113 115 115 109 109 106 96 101 110 104
315 32 251 219 248 306 311 301 305 354 311 309 310 315 306 301 299 295 292 293 286 275 253 236 220 213 206 202 205 197 127 131 124 116 116 113 110 107 109 108 108 105 102 103
291 325 279 316 252 293 309 320 350 327 319 320 317 310 305 299 296 297 307 299 293 285 261 205 177 187 190 194 182 142 134 131 119 116 114 117 111 107 105 102 103 101 108 114
276 302 277 281 303 315 293 330 320 330 323 318 311 306 297 294 298 314 307 304 300 295 108 141 157 172 175 171 140 124 129 123 115 114 116 115 109 108 101 85 95 128 157 118
222 245 306 283 303 285 304 316 336 326 322 312 307 306 302 314 316 316 306 305 321 63 123 134 145 153 152 125 122 125 127 121 119 113 117 116 111 106 105 102 86 45 100 95